Location: Kalberh�ni
(46.4610°N, 7.2453°E)
Time: 05:54:22
(UTC+00:00)

Cosmos 2333 Rocket - Pass Details

Date: 23 October 2021
Orbit: 837 x 865 km, 70.8° (Epoch: 05 December)

Event Time Altitude Azimuth Distance (km) Brightness Sun altitude
Rises 05:20:48 0° 327° (NNW) 3,445 5.0 -7.4°
Reaches altitude 10° 05:23:22 10° 321° (NW) 2,507 4.2 -6.9°
Maximum altitude 05:28:45 42° 252° (WSW) 1,210 2.7 -6.0°
Drops below altitude 10° 05:34:08 10° 183° (S) 2,498 4.8 -5.1°
Sets 05:36:41 0° 177° (S) 3,431 5.6 -4.7°
